Stations météo

réclame
Mon MeteoGroup
Kempten, Allemagne (10946): Température de l'air & dewpoint: 10.01.2018 10:00:00 - 16.01.2018 10:00:00 (CET)Kempten, Allemagne (10946): Température de l'air 5cm & Température de l'air -5cm: 10.01.2018 10:00:00 - 16.01.2018 10:00:00 (CET)Kempten, Allemagne (10946): Température de l'air -20cm & Température de l'air -100cm: 10.01.2018 10:00:00 - 16.01.2018 10:00:00 (CET)Kempten, Allemagne (10946): Vitesse du vent & gusts: 10.01.2018 10:00:00 - 16.01.2018 10:00:00 (CET)Kempten, Allemagne (10946): Direction du vent: 10.01.2018 10:00:00 - 16.01.2018 10:00:00 (CET)Kempten, Allemagne (10946): reduced air pressure: 10.01.2018 10:00:00 - 16.01.2018 10:00:00 (CET)Kempten, Allemagne (10946): visibility: 10.01.2018 10:00:00 - 16.01.2018 10:00:00 (CET)Kempten, Allemagne (10946): Ensoleillement: 10.01.2018 10:00:00 - 16.01.2018 10:00:00 (CET)Kempten, Allemagne (10946): Quantités de précipitations: 10.01.2018 10:00:00 - 16.01.2018 10:00:00 (CET)
Date & Time tt [°C] td [°C] tt 5cm [°C] tt -5cm [°C] tt -20cm [°C] tt -100cm [°C] ff [km/h] ff [knt] fx [km/h] fx [knt] dd ppp [hPa] vv [km] sd [min] rr [mm]
16.01.2018 10:00:00 4,5 1,7 3,2 0,1 0,8 5,1 19 11 49 27 SW 1003,0 48 2 1,7
16.01.2018 09:00:00 4,9 1,9 3,1 0,0 0,9 5,2 23 13 59 32 SW 1002,5 4,7 0 0,6
16.01.2018 08:00:00 4,5 1,7 2,8 0,0 0,9 5,2 19 10 42 23 SW 1002,5 25 0 0,6
16.01.2018 07:00:00 3,9 1,2 2,4 0,0 0,9 5,2 19 10 36 20 SW 1002,7 5 0 0,8
16.01.2018 06:00:00 3,6 0,4 2,1 0,0 0,9 5,2 13 7 37 20 SW 1004,1 17 0 0,1
16.01.2018 05:00:00 2,6 0,9 1,6 0,0 0,9 5,2 18 10 35 19 SW 1005,5 8 0 1,2
16.01.2018 04:00:00 2,4 0,9 1,5 0,0 0,9 5,2 14 8 29 16 WSW 1005,8 4,8 0 0,6
16.01.2018 03:00:00 2,4 1,1 1,5 0,0 0,9 5,2 11 6 31 17 WSW 1006,0 9 0 0,6
16.01.2018 02:00:00 2,1 0,3 0,9 0,0 0,9 5,2 9 5 33 18 SW 1006,5 12 0 0,2
16.01.2018 01:00:00 3,2 -2,5 1,4 0,0 0,9 5,2 14 7 32 18 SW 1007,0 21 0 0,0
16.01.2018 00:00:00 3,0 -4,0 1,4 0,0 0,9 5,2 7 4 18 10 S 1008,1 11 0 0,0
15.01.2018 23:00:00 3,7 -3,7 2,2 0,0 0,9 5,2 13 7 32 17 S 1008,3 58 0 0,0
15.01.2018 22:00:00 2,4 -4,0 1,2 -0,1 0,9 5,2 6 4 14 8 SW 1010,0 31 0 0,0
15.01.2018 21:00:00 1,7 -3,0 0,2 -0,1 0,9 5,2 8 5 15 8 S 1011,2 22 0 0,0
15.01.2018 20:00:00 0,3 -3,4 -1,1 -0,1 0,9 5,2 3 2 11 6 W 1012,2 30 0 0,0
15.01.2018 19:00:00 0,8 -3,2 -1,3 -0,1 0,9 5,2 5 3 10 5 NW 1012,1 12 0 0,0
15.01.2018 18:00:00 1,4 -3,1 -0,5 -0,1 0,9 5,2 0 0 6 4 N 1012,7 36 0 0,0
15.01.2018 17:00:00 3,0 -3,6 0,0 -0,1 0,9 5,2 3 2 8 5 ESE 1013,5 30 0 0,0
15.01.2018 16:00:00 5,2 -4,0 2,2 -0,1 0,9 5,2 5 3 12 7 SSE 1014,3 54 6 0,0
15.01.2018 15:00:00 6,3 -4,9 4,6 -0,1 0,9 5,2 6 4 17 9 W 1015,0 70 1 0,0
15.01.2018 14:00:00 7,3 -4,3 6,7 -0,1 0,9 5,2 7 4 23 12 WSW 1015,6 59 22 0,0
15.01.2018 13:00:00 7,1 -5,0 7,0 -0,2 0,9 5,2 16 9 27 15 WSW 1016,7 31 60 0,0
15.01.2018 12:00:00 4,4 -3,9 4,6 -0,3 0,9 5,2 8 5 14 8 S 1019,1 35 60 0,0
15.01.2018 11:00:00 0,9 -5,2 0,4 -0,4 1,0 5,2 7 4 14 7 S 1021,4 31 60 0,0
15.01.2018 10:00:00 -2,2 -6,1 -2,8 -0,6 1,0 5,2 6 4 12 7 SSE 1022,6 22 60 0,0
15.01.2018 09:00:00 -6,1 -7,4 -7,0 -0,6 1,0 5,3 6 3 9 5 ESE 1024,4 9 8 0,0
15.01.2018 08:00:00 -6,1 -7,2 -8,0 -0,5 1,1 5,3 1 0 6 3 E 1024,6 7 0 0,0
15.01.2018 07:00:00 -5,6 -6,8 -7,5 -0,4 1,1 5,3 3 1 7 4 SSE 1024,4 10 0 0,0
15.01.2018 06:00:00 -5,4 -6,8 -7,2 -0,3 1,1 5,3 4 2 14 8 ESE 1024,4 7 0 0,0
15.01.2018 05:00:00 -4,8 -6,2 -6,0 -0,2 1,2 5,3 8 5 11 6 ESE 1024,3 7 0 0,0
15.01.2018 04:00:00 -5,0 -6,3 -7,0 -0,1 1,2 5,3 6 3 11 6 SE 1024,8 6 0 0,0
15.01.2018 03:00:00 -5,3 -6,4 -7,0 0,0 1,2 5,3 5 3 8 4 SE 1025,4 5 0 0,0
15.01.2018 02:00:00 -4,8 -6,1 -6,3 0,1 1,2 5,3 5 3 6 3 ESE 1025,4 5 0 0,0
15.01.2018 01:00:00 -4,0 -5,3 -5,3 0,2 1,2 5,3 4 2 6 3 ESE 1025,5 6 0 0,0
15.01.2018 00:00:00 -2,2 -4,3 -4,7 0,2 1,2 5,3 4 2 10 5 SW 1025,0 8 0 0,0
14.01.2018 23:00:00 -0,8 -3,9 -1,9 0,2 1,2 5,3 5 3 11 6 SW 1024,3 9 0 0,0
14.01.2018 22:00:00 -0,5 -3,0 -1,1 0,2 1,3 5,3 0 0 3 2 N 1024,2 8 0 0,0
14.01.2018 21:00:00 -0,5 -3,0 -1,1 0,2 1,3 5,3 0 0 6 4 N 1023,9 10 0 0,0
14.01.2018 20:00:00 -0,5 -3,0 -0,9 0,2 1,3 5,3 5 3 7 4 NW 1023,8 11 0 0,0
14.01.2018 19:00:00 -1,3 -3,4 -1,5 0,1 1,3 5,3 0 0 4 2 N 1023,5 8 0 0,0
14.01.2018 18:00:00 -1,9 -4,2 -2,6 0,1 1,3 5,3 2 1 5 3 N 1023,4 6 0 0,0
14.01.2018 17:00:00 -1,2 -3,7 -3,8 0,1 1,3 5,3 0 0 4 2 N 1022,7 9 0 0,0
14.01.2018 16:00:00 0,1 -4,0 -2,2 0,1 1,3 5,3 0 0 5 3 N 1021,9 14 0 0,0
14.01.2018 15:00:00 0,5 -4,4 -0,4 0,1 1,3 5,3 5 3 8 4 NW 1021,5 16 1 0,0
14.01.2018 14:00:00 0,3 -4,5 0,2 0,1 1,3 5,3 2 1 10 5 WSW 1021,6 14 0 0,0
14.01.2018 13:00:00 0,0 -4,0 0,7 0,1 1,3 5,3 7 4 11 6 S 1021,9 13 3 0,0
14.01.2018 12:00:00 -1,0 -3,6 0,1 0,1 1,4 5,3 5 3 12 6 S 1022,8 10 4 0,0
14.01.2018 11:00:00 -2,1 -4,0 -1,1 0,1 1,4 5,3 7 4 12 7 S 1023,5 9 2 0,0
14.01.2018 10:00:00 -3,3 -4,6 -2,1 0,1 1,4 5,3 6 3 14 8 S 1023,6 7 5 0,0
14.01.2018 09:00:00 -4,1 -5,3 -3,5 0,0 1,5 5,3 10 6 16 9 S 1023,5 9 0 0,0
14.01.2018 08:00:00 -4,1 -5,6 -4,2 0,1 1,5 5,3 8 4 14 7 S 1023,3 12 0 0,0
14.01.2018 07:00:00 -3,6 -4,9 -3,6 0,1 1,5 5,3 4 2 8 4 SE 1022,7 10 0 0,0
14.01.2018 06:00:00 -3,5 -4,8 -3,4 0,1 1,6 5,3 2 1 8 4 SE 1022,5 8 0 0,0
14.01.2018 05:00:00 -3,8 -4,9 -3,6 0,1 1,6 5,3 4 2 6 4 SE 1022,6 7 0 0,0
14.01.2018 04:00:00 -4,9 -6,1 -6,1 0,1 1,7 5,3 5 3 6 4 ESE 1023,2 7 0 0,0
14.01.2018 03:00:00 -4,8 -5,7 -6,9 0,2 1,7 5,3 5 3 7 4 ESE 1023,3 5 0 0,0
14.01.2018 02:00:00 -4,1 -5,2 -6,0 0,3 1,8 5,3 5 3 6 3 ESE 1023,1 6 0 0,0
14.01.2018 01:00:00 -2,9 -4,0 -4,8 0,4 1,8 5,3 0 0 7 4 N 1022,7 6 0 0,0
14.01.2018 00:00:00 -2,3 -3,7 -3,3 0,4 1,9 5,3 5 3 8 4 E 1023,0 7 0 0,0
13.01.2018 23:00:00 -2,1 -3,4 -2,4 0,5 2,0 5,3 0 0 6 3 N 1023,4 8 0 0,0
13.01.2018 22:00:00 -3,3 -4,8 -4,3 0,5 2,0 5,3 3 2 5 3 N 1023,9 7 0 0,0
13.01.2018 21:00:00 -3,1 -4,4 -5,2 0,6 2,1 5,3 0 0 6 3 N 1023,9 6 0 0,0
13.01.2018 20:00:00 -2,6 -3,8 -5,0 0,7 2,3 5,3 3 2 6 4 N 1023,8 8 0 0,0
13.01.2018 19:00:00 -1,7 -3,7 -4,3 0,8 2,4 5,3 4 2 10 5 NE 1023,7 8 0 0,0
13.01.2018 18:00:00 -0,5 -3,0 -2,5 1,1 2,5 5,3 5 3 6 4 E 1023,5 9 0 0,0
13.01.2018 17:00:00 -0,1 -3,3 -1,6 1,4 2,6 5,3 3 2 12 6 NE 1023,6 16 0 0,0
13.01.2018 16:00:00 1,1 -3,6 -0,1 2,5 2,5 5,3 6 4 14 8 ESE 1023,4 19 57 0,0
13.01.2018 15:00:00 2,2 -3,1 3,7 2,8 2,4 5,3 3 1 10 5 SSE 1022,9 23 7 0,0
13.01.2018 14:00:00 1,3 -3,6 2,1 2,9 2,2 5,3 4 2 14 7 NE 1023,4 21 0 0,0
13.01.2018 13:00:00 0,8 -3,4 1,9 2,3 2,1 5,3 7 4 13 7 E 1023,9 17 0 0,0
13.01.2018 12:00:00 0,4 -3,4 1,3 1,7 2,0 5,3 7 4 15 8 E 1024,6 15 0 0,0
13.01.2018 11:00:00 0,4 -3,3 0,7 1,2 2,0 5,3 7 4 14 7 E 1025,3 16 0 0,0
13.01.2018 10:00:00 0,4 -3,2 0,4 1,0 2,0 5,3 8 4 13 7 ESE 1025,2 16 0 0,0
13.01.2018 09:00:00 0,3 -2,9 0,1 0,8 2,0 5,3 6 3 12 7 ESE 1025,4 13 0 0,0
13.01.2018 08:00:00 0,1 -3,1 -0,1 0,8 2,1 5,3 8 4 16 9 SSE 1025,4 17 0 0,0
13.01.2018 07:00:00 0,3 -2,5 0,0 0,9 2,1 5,3 5 3 10 5 ESE 1025,3 13 0 0,0
13.01.2018 06:00:00 0,3 -2,4 0,0 0,9 2,2 5,3 6 3 13 7 SSE 1025,6 13 0 0,0
13.01.2018 05:00:00 0,2 -2,4 0,1 1,0 2,2 5,3 10 5 20 11 E 1025,7 13 0 0,0
13.01.2018 04:00:00 0,2 -2,4 0,1 1,0 2,3 5,3 11 6 19 10 E 1025,9 12 0 0,0
13.01.2018 03:00:00 0,5 -2,3 0,3 1,1 2,3 5,3 9 5 22 12 E 1026,0 12 0 0,0
13.01.2018 02:00:00 0,6 -2,3 0,4 1,2 2,4 5,3 9 5 17 9 E 1025,9 12 0 0,0
13.01.2018 01:00:00 0,7 -2,1 0,4 1,3 2,5 5,3 7 4 19 10 E 1025,9 14 0 0,0
13.01.2018 00:00:00 0,8 -2,1 0,6 1,3 2,5 5,3 9 5 20 11 E 1026,3 14 0 0,0
12.01.2018 23:00:00 0,9 -2,1 0,7 1,4 2,6 5,3 12 6 22 12 E 1026,5 14 0 0,0
12.01.2018 22:00:00 0,9 -2,2 0,7 1,6 2,7 5,3 10 5 17 9 ENE 1026,3 14 0 0,0
12.01.2018 21:00:00 1,3 -1,8 1,0 1,7 2,7 5,3 8 4 22 12 E 1026,2 12 0 0,0
12.01.2018 20:00:00 1,5 -1,7 1,0 1,8 2,8 5,3 10 5 20 11 E 1025,9 15 0 0,0
12.01.2018 19:00:00 1,7 -1,3 1,3 2,0 2,9 5,3 6 4 11 6 E 1026,0 13 0 0,0
12.01.2018 18:00:00 1,6 -1,5 1,2 2,2 2,9 5,3 8 4 22 12 E 1025,9 16 0 0,0
12.01.2018 17:00:00 1,6 -1,5 1,4 2,6 2,9 5,3 8 5 19 11 ENE 1025,8 17 0 0,0
12.01.2018 16:00:00 2,1 -0,7 2,0 2,9 2,9 5,3 6 3 16 9 ENE 1025,3 11 0 0,0
12.01.2018 15:00:00 1,9 -1,0 2,3 3,0 2,8 5,3 9 5 18 10 ESE 1024,8 15 0 0,0
12.01.2018 14:00:00 1,7 -0,8 2,1 3,0 2,8 5,3 7 4 16 9 E 1024,9 14 0 0,0
12.01.2018 13:00:00 1,6 -0,3 2,0 2,8 2,7 5,3 6 3 10 6 ENE 1024,8 10 0 0,0
12.01.2018 12:00:00 1,7 -0,2 2,1 2,7 2,6 5,3 5 3 10 6 ESE 1025,1 13 0 0,0
12.01.2018 11:00:00 1,4 -0,4 1,6 2,4 2,6 5,3 6 4 15 8 NE 1025,1 10 0 0,0
12.01.2018 10:00:00 1,1 0,0 1,2 2,1 2,6 5,3 9 5 14 8 NE 1024,7 7 0 0,0
12.01.2018 09:00:00 1,5 0,4 1,3 2,0 2,6 5,3 6 3 10 5 ENE 1024,2 7 0 0,0
12.01.2018 08:00:00 1,4 0,3 1,2 2,0 2,6 5,3 5 3 11 6 ENE 1023,9 5 0 0,0
12.01.2018 07:00:00 1,5 0,5 1,3 2,0 2,6 5,3 6 3 11 6 NNE 1023,3 4,4 0 0,0
12.01.2018 06:00:00 1,5 1,0 1,4 2,0 2,6 5,3 5 3 10 6 ENE 1022,8 2,0 0 0,0
12.01.2018 05:00:00 1,4 0,7 1,3 2,1 2,6 5,3 2 1 11 6 SE 1022,5 4,1 0 0,0
12.01.2018 04:00:00 1,4 0,7 1,3 2,1 2,7 5,3 6 3 12 7 NE 1022,5 3,7 0 0,0
12.01.2018 03:00:00 1,6 1,2 1,5 2,1 2,7 5,3 2 1 9 5 N 1022,4 2,4 0 0,0
12.01.2018 02:00:00 1,6 1,0 1,5 2,1 2,7 5,3 5 3 8 4 N 1021,7 3,1 0 0,0
12.01.2018 01:00:00 1,6 0,8 1,4 2,1 2,7 5,3 2 1 6 4 ENE 1021,4 3,3 0 0,0
12.01.2018 00:00:00 1,3 0,9 1,3 2,1 2,7 5,3 5 3 8 4 NW 1021,2 1,2 0 0,0
11.01.2018 23:00:00 1,4 0,9 1,3 2,1 2,8 5,3 4 2 9 5 NNW 1020,9 2,6 0 0,0
11.01.2018 22:00:00 1,2 0,8 1,2 2,1 2,8 5,3 6 3 11 6 NW 1020,4 0,7 0 0,0
11.01.2018 21:00:00 1,1 0,5 1,0 2,1 2,9 5,4 6 4 12 6 NNW 1020,2 1,1 0 0,0
11.01.2018 20:00:00 2,2 1,1 1,1 2,2 3,0 5,4 5 3 8 5 NNW 1019,4 4,0 0 0,1
11.01.2018 19:00:00 3,7 1,5 2,6 3,0 3,0 5,4 5 3 9 5 NE 1018,4 4,3 0 0,1
11.01.2018 18:00:00 4,3 1,5 3,5 3,4 3,0 5,4 3 2 10 5 NNE 1017,6 8 0 0,0
11.01.2018 17:00:00 5,0 1,5 4,1 3,8 2,9 5,4 6 3 12 7 NNE 1016,6 11 0 0,0
11.01.2018 16:00:00 5,5 1,6 4,9 4,3 2,7 5,4 6 4 14 8 NNW 1015,8 17 0 0,0
11.01.2018 15:00:00 6,6 1,9 6,4 4,5 2,4 5,4 3 2 13 7 NNW 1014,9 19 0 0,0
11.01.2018 14:00:00 7,0 0,9 7,3 4,3 2,0 5,4 6 3 11 6 NW 1014,2 34 9 0,0
11.01.2018 13:00:00 6,3 -0,6 6,4 3,3 1,7 5,4 4 2 8 5 NW 1014,2 31 49 0,0
11.01.2018 12:00:00 5,2 -1,5 6,2 1,9 1,6 5,4 3 2 6 3 WSW 1014,7 27 60 0,0
11.01.2018 11:00:00 3,0 -2,2 3,0 0,6 1,6 5,4 6 3 8 5 S 1015,4 36 37 0,0
11.01.2018 10:00:00 1,3 -1,3 0,9 0,5 1,6 5,4 0 0 6 4 N 1016,1 25 0 0,0
11.01.2018 09:00:00 -0,1 -1,8 -0,8 0,5 1,7 5,4 0 0 5 3 N 1016,2 25 0 0,0
11.01.2018 08:00:00 0,3 -2,0 -0,9 0,5 1,7 5,4 5 3 9 5 ESE 1015,5 33 0 0,0
11.01.2018 07:00:00 0,4 -2,1 -0,6 0,5 1,7 5,4 6 3 9 5 ESE 1015,1 34 0 0,0
11.01.2018 06:00:00 0,4 -2,1 -0,8 0,5 1,7 5,4 7 4 11 6 ESE 1014,8 41 0 0,0
11.01.2018 05:00:00 0,1 -2,2 -1,3 0,5 1,8 5,4 7 4 10 5 ESE 1014,7 37 0 0,0
11.01.2018 04:00:00 -0,2 -2,0 -1,7 0,5 1,8 5,4 6 3 9 5 ESE 1014,8 24 0 0,0
11.01.2018 03:00:00 0,2 -2,0 -1,3 0,5 1,9 5,4 6 3 10 5 ESE 1014,8 28 0 0,0
11.01.2018 02:00:00 0,5 -1,8 -0,8 0,5 1,9 5,4 6 3 9 5 SE 1014,6 25 0 0,0
11.01.2018 01:00:00 0,5 -1,5 -1,5 0,5 2,0 5,4 4 2 9 5 SSE 1014,6 20 0 0,0
11.01.2018 00:00:00 0,2 -1,4 -1,7 0,6 2,1 5,4 5 3 9 5 ESE 1014,8 12 0 0,0
10.01.2018 23:00:00 1,3 -0,8 -1,8 0,6 2,2 5,4 5 3 11 6 SE 1014,5 20 0 0,0
10.01.2018 22:00:00 1,1 -1,0 -1,2 0,7 2,3 5,4 5 3 10 5 SE 1014,4 16 0 0,0
10.01.2018 21:00:00 1,3 -0,6 -0,9 0,9 2,4 5,4 3 2 10 5 S 1014,5 23 0 0,0
10.01.2018 20:00:00 1,4 -0,2 -0,1 1,3 2,4 5,4 7 4 8 5 ESE 1014,4 17 0 0,0
10.01.2018 19:00:00 2,0 -0,1 0,4 1,7 2,5 5,4 6 3 10 5 ESE 1013,9 13 0 0,0
10.01.2018 18:00:00 3,3 0,5 1,4 1,9 2,5 5,4 0 0 7 4 ESE 1013,0 14 0 0,0
10.01.2018 17:00:00 5,1 0,8 2,8 2,4 2,4 5,4 2 1 7 4 E 1012,2 20 24 0,0
10.01.2018 16:00:00 7,7 0,5 4,7 3,0 2,2 5,4 4 2 8 4 N 1011,2 32 57 0,0
10.01.2018 15:00:00 7,9 -0,4 7,0 3,0 1,9 5,4 5 3 8 5 N 1011,0 23 60 0,0
10.01.2018 14:00:00 8,0 -0,1 7,1 2,7 1,7 5,4 4 2 8 4 SSW 1011,1 29 60 0,0
10.01.2018 13:00:00 7,0 -0,1 7,3 1,0 1,7 5,4 6 3 11 6 S 1012,2 24 60 0,0
10.01.2018 12:00:00 5,7 -0,6 6,4 0,4 1,7 5,4 6 3 11 6 S 1013,4 33 60 0,0
10.01.2018 11:00:00 4,1 -1,7 4,0 0,4 1,7 5,4 6 4 10 6 S 1015,0 28 60 0,0
10.01.2018 10:00:00 1,8 -1,5 0,1 0,4 1,7 5,4 5 3 11 6 SE 1015,9 30 60 0,0

tt = Température de l'air
td = dewpoint
tt 5cm = Température de l'air 5cm
tt -5cm = Température de l'air -5cm
tt -20cm = Température de l'air -20cm
tt -100cm = Température de l'air -100cm
ff = Vitesse du vent
fx = gusts
dd = Direction du vent
ppp = reduced air pressure
vv = visibility
sd = Ensoleillement
rr = Quantités de précipitations

stations d'obs. à proximité